Location: �perlecques
(50.8057°N, 2.1521°E)
Time: 16:48:52
(UTC+00:00)

X-37B - Visible Passes

Search period start: 13 June 2021 00:00
Search period end: 23 June 2021 00:00
Orbit: 386 x 389 km, 45.0° (Epoch: 10 June)

Date Brightness Start Highest point End Pass type
(mag) Time Alt. Az. Time Alt. Az. Time Alt. Az.
13 Jun 2.5 02:24:15 12° SSW 02:26:04 17° SSE 02:28:15 10° ESE visible
14 Jun 2.8 01:28:10 12° SSE 01:28:10 12° SSE 01:29:23 10° SE visible
15 Jun 2.0 02:04:19 16° SSW 02:05:45 22° SSE 02:08:17 10° ESE visible
16 Jun 2.5 01:08:13 16° SE 01:08:13 16° SE 01:09:47 10° ESE visible
16 Jun 1.7 02:40:53 10° WSW 02:43:41 28° S 02:46:28 10° ESE visible
17 Jun 1.7 01:44:24 21° SSW 01:45:28 26° S 01:48:11 10° ESE visible
18 Jun 2.4 00:48:20 19° SE 00:48:20 19° SE 00:49:49 10° ESE visible
18 Jun 1.6 02:20:39 10° WSW 02:23:25 28° S 02:26:12 10° ESE visible
19 Jun 1.5 01:24:37 26° SSW 01:25:13 28° S 01:28:00 10° ESE visible
20 Jun 2.6 00:28:47 16° SE 00:28:47 16° SE 00:29:43 10° ESE visible
20 Jun 1.7 02:01:04 14° WSW 02:03:09 25° S 02:05:51 10° SE visible
21 Jun 1.7 01:05:32 26° SSE 01:05:32 26° SSE 01:07:44 10° ESE visible
21 Jun 2.3 02:38:58 10° WSW 02:41:01 16° SSW 02:43:04 10° SSE visible
22 Jun 1.9 01:43:03 21° S 01:43:03 21° S 01:45:20 10° SE visible
22 Jun 2.8 21:31:01 10° S 21:31:23 11° S 21:31:23 11° S visible
